This demonstration page uses our WeatherBlox Daily Observations layout. Learn more.

Left ArrowRight Arrow

Hourly Observations for January 24, 2022

Temp ( °F °C ) Dew Point ( °F °C ) Humidity (%) Winds ( mph kmh ) Pressure ( in mb ) Visibility ( mi km ) Precip ( " mm )
12:53 am 00:53 Mostly Cloudy 42 5.6 28 -2.2 58 58 ESE 22 35 29.80 1009 10 16 0.00 0.00
1:53 am 01:53 Clear 42 5.6 28 -2.2 58 58 SE 29 46 29.73 1007 10 16 0.00 0.00
2:53 am 02:53 Clear 43 6.1 26 -3.3 51 51 E 20 31 29.70 1006 10 16 0.00 0.00
3:53 am 03:53 Cloudy 45 7.2 24 -4.4 44 44 ESE 15 24 29.69 1005 10 16 0.00 0.00
4:53 am 04:53 Cloudy 41 5 29 -1.7 62 62 ESE 32 52 29.65 1004 10 16 0.00 0.00
5:53 am 05:53 Cloudy with Light Rain 38 3.3 31 -0.6 76 76 ESE 36 57 29.65 1004 10 16 0.00 0.00
6:53 am 06:53 Cloudy 39 3.9 31 -0.6 73 73 SE 33 54 29.62 1003 10 16 0.00 0.00
7:53 am 07:53 Cloudy 40 4.4 30 -1.1 68 68 ESE 35 56 29.58 1002 10 16 0.00 0.00
8:53 am 08:53 Partly Cloudy 42 5.6 28 -2.2 58 58 ESE 24 39 29.59 1002 10 16 0.00 0.00
9:53 am 09:53 Partly Cloudy 42 5.6 27 -2.8 55 55 SE 26 43 29.59 1002 10 16 0.00 0.00
10:53 am 10:53 Mostly Cloudy 43 6.1 27 -2.8 53 53 SE 32 52 29.57 1001 10 16 0.00 0.00
11:53 am 11:53 Cloudy 44 6.7 25 -3.9 47 47 SE 32 52 29.57 1001 10 16 0.00 0.00
12:53 pm 12:53 Mostly Cloudy 44 6.7 26 -3.3 49 49 SE 31 50 29.56 1001 10 16 0.00 0.00
1:53 pm 13:53 Mostly Cloudy 46 7.8 25 -3.9 44 44 SE 30 48 29.54 1000 10 16 0.00 0.00
2:53 pm 14:53 Mostly Cloudy 46 7.8 26 -3.3 46 46 SE 21 33 29.54 1000 10 16 0.00 0.00
3:53 pm 15:53 Mostly Cloudy 45 7.2 27 -2.8 49 49 SE 21 33 29.54 1000 10 16 0.00 0.00
4:53 pm 16:53 Cloudy 44 6.7 28 -2.2 53 53 SSE 18 30 29.54 1000 10 16 0.00 0.00
5:53 pm 17:53 Cloudy 43 6.1 28 -2.2 56 56 SSE 17 28 29.56 1001 10 16 0.00 0.00
6:53 pm 18:53 Cloudy 46 7.8 27 -2.8 47 47 SE 16 26 29.56 1001 10 16 0.00 0.00
7:53 pm 19:53 Cloudy 43 6.1 28 -2.2 56 56 SSE 15 24 29.58 1002 10 16 0.00 0.00
8:53 pm 20:53 Cloudy 37 2.8 30 -1.1 76 76 WSW 13 20 29.61 1003 10 16 0.00 0.00
9:53 pm 21:53 Cloudy with Light Rain 37 2.8 32 0 82 82 SW 3 6 29.64 1004 10 16 0.00 0.00
10:53 pm 22:53 Cloudy 37 2.8 33 0.6 86 86 VRB 3 6 29.65 1004 10 16 0.00 0.00
11:53 pm 23:53 Cloudy 36 2.2 32 0 86 86 VRB 3 6 29.67 1005 10 16 0.00 0.00

Powered by AerisWeather